Date String (YYYY-MM-DD hh:mm:ss) UTC,Instrument flags,Ambient pressure (hPa),Sample flow (lpm),Bypass flow (lpm),Sample temperature (°C),Ambient temperature (°C),ASC tube jacket temperature (°C),LED temperature (°C),Box temperature (°C),Sample RH (%),Span deviation,Mass concentration (μg/m³),Mass concentration (μg/m³),Mass concentration (μg/m³)
DateTimeUTC,F1_M11,P_M11,Q1_M11,Q2_M11,T1_M11,T2_M11,T3_M11,T4_M11,T5_M11,U1_M11,ZSPAN_M11,X2_M11,X0_M11,X1_M11
2022-05-09 10:00:00,,0809.0,5.00,0.00,27.2,26.5,00.0,36.3,29.1,22.9,0000.0,0004.17,0009.45,0002.99
2022-05-09 10:01:00,,0809.0,5.00,0.00,27.2,26.5,00.0,36.2,29.0,22.9,0000.0,0004.17,0009.83,0002.99
2022-05-09 10:02:00,,0809.0,5.00,0.00,27.2,26.5,00.0,36.2,29.0,22.9,0000.0,0004.19,0010.00,0002.99
2022-05-09 10:03:00,,0809.0,5.00,0.00,27.2,26.4,00.0,36.2,29.0,22.9,0000.0,0004.22,0010.10,0003.00
2022-05-09 10:04:00,,0809.1,5.00,0.00,27.2,26.4,00.0,36.2,29.0,22.8,0000.0,0004.22,0009.86,0003.02
2022-05-09 10:05:00,,0809.0,4.99,0.00,27.1,26.3,00.0,36.2,29.0,22.8,0000.0,0004.21,0009.82,0003.04
2022-05-09 10:06:00,,0808.9,5.00,0.00,27.1,26.3,00.0,36.2,28.9,22.8,0000.0,0004.18,0009.70,0003.02
2022-05-09 10:07:00,,0809.0,5.00,0.00,27.1,26.3,00.0,36.2,28.9,22.9,0000.0,0004.16,0009.70,0003.01
2022-05-09 10:08:00,,0809.1,5.00,0.00,27.1,26.3,00.0,36.2,28.9,22.9,0000.0,0004.13,0009.59,0003.00
2022-05-09 10:09:00,,0809.1,5.00,0.00,27.1,26.3,00.0,36.2,28.9,22.9,0000.0,0004.22,0009.52,0003.01
2022-05-09 10:10:00,,0809.2,4.99,0.00,27.1,26.2,00.0,36.2,28.9,22.9,0000.0,0004.26,0009.33,0003.01
2022-05-09 10:11:00,,0809.2,5.01,0.00,27.1,26.2,00.0,36.2,28.9,22.9,0000.0,0004.31,0009.35,0003.01
2022-05-09 10:12:00,,0809.2,5.00,0.00,27.1,26.2,00.0,36.1,28.9,22.9,0000.0,0004.35,0009.32,0003.01
2022-05-09 10:13:00,,0809.0,4.99,0.00,27.0,26.2,00.0,36.1,28.8,22.8,0000.0,0004.34,0008.97,0003.00
2022-05-09 10:14:00,,0809.0,5.01,0.00,27.0,26.1,00.0,36.1,28.8,22.8,0000.0,0004.29,0008.86,0002.99
2022-05-09 10:15:00,,0809.0,4.99,0.00,27.0,26.1,00.0,36.1,28.8,22.8,0000.0,0004.28,0008.90,0002.95
2022-05-09 10:16:00,,0809.1,5.01,0.00,27.0,26.1,00.0,36.1,28.8,22.9,0000.0,0004.28,0009.00,0002.91
2022-05-09 10:17:00,,0809.0,5.00,0.00,27.0,26.1,00.0,36.1,28.8,22.9,0000.0,0004.29,0008.98,0002.91
2022-05-09 10:18:00,,0809.0,5.00,0.00,27.0,26.1,00.0,36.1,28.8,22.9,0000.0,0004.33,0009.07,0002.93
2022-05-09 10:19:00,,0809.0,4.99,0.00,27.0,26.1,00.0,36.1,28.8,22.8,0000.0,0004.35,0009.10,0002.92
2022-05-09 10:20:00,,0809.0,4.99,0.00,27.0,26.1,00.0,36.1,28.7,22.8,0000.0,0004.30,0008.91,0002.93
2022-05-09 10:21:00,,0809.0,5.01,0.00,26.9,26.1,00.0,36.0,28.7,22.8,0000.0,0004.28,0008.86,0002.92
2022-05-09 10:22:00,,0809.0,5.01,0.00,26.9,26.0,00.0,36.0,28.7,22.7,0000.0,0004.23,0008.71,0002.92
2022-05-09 10:23:00,,0809.0,4.99,0.00,26.9,26.0,00.0,36.0,28.7,22.8,0000.0,0004.23,0008.79,0002.93
2022-05-09 10:24:00,,0809.0,5.00,0.00,26.9,26.0,00.0,36.0,28.7,22.8,0000.0,0004.21,0008.60,0002.95
2022-05-09 10:25:00,,0809.0,5.01,0.00,26.9,26.0,00.0,36.0,28.7,22.8,0000.0,0004.24,0008.63,0002.97
2022-05-09 10:26:00,,0809.0,5.00,0.00,26.9,26.0,00.0,36.0,28.7,22.9,0000.0,0004.27,0008.65,0003.00
2022-05-09 10:27:00,,0809.0,5.01,0.00,26.8,26.0,00.0,36.0,28.7,22.9,0000.0,0004.28,0008.65,0003.03
2022-05-09 10:28:00,,0809.0,5.00,0.00,26.8,26.0,00.0,35.9,28.7,22.9,0000.0,0004.27,0008.65,0003.05
2022-05-09 10:29:00,,0809.1,5.00,0.00,26.8,26.0,00.0,35.9,28.6,22.9,0000.0,0004.26,0008.58,0003.07
2022-05-09 10:30:00,,0809.0,5.00,0.00,26.8,26.0,00.0,35.9,28.6,22.9,0000.0,0004.23,0008.50,0003.07
2022-05-09 10:31:00,,0809.0,5.00,0.00,26.8,26.0,00.0,35.9,28.6,22.9,0000.0,0004.20,0008.40,0003.05
2022-05-09 10:32:00,,0809.1,5.00,0.00,26.8,26.0,00.0,35.9,28.6,22.9,0000.0,0004.18,0008.38,0003.05
2022-05-09 10:33:00,,0809.0,4.99,0.00,26.8,26.0,00.0,35.9,28.6,22.9,0000.0,0004.17,0008.46,0003.05
2022-05-09 10:34:00,,0809.0,5.00,0.00,26.8,26.0,00.0,35.9,28.6,22.9,0000.0,0004.13,0008.27,0003.05
2022-05-09 10:35:00,,0809.1,5.00,0.00,26.8,26.0,00.0,35.9,28.6,23.0,0000.0,0004.19,0008.43,0003.05
2022-05-09 10:36:00,,0809.2,5.00,0.00,26.8,26.0,00.0,35.9,28.6,22.9,0000.0,0004.19,0008.45,0003.06
2022-05-09 10:37:00,,0809.2,5.00,0.00,26.8,26.0,00.0,35.8,28.6,22.8,0000.0,0004.20,0008.56,0003.08
2022-05-09 10:38:00,,0809.2,4.99,0.00,26.8,26.0,00.0,35.8,28.6,22.8,0000.0,0004.19,0008.64,0003.10
2022-05-09 10:39:00,,0809.2,5.00,0.00,26.8,26.0,00.0,35.8,28.6,22.8,0000.0,0004.23,0009.04,0003.12
2022-05-09 10:40:00,,0809.2,5.00,0.00,26.8,26.0,00.0,35.8,28.6,22.9,0000.0,0004.24,0009.13,0003.12
2022-05-09 10:41:00,,0809.3,5.00,0.00,26.8,26.0,00.0,35.8,28.6,22.8,0000.0,0004.27,0009.37,0003.13
2022-05-09 10:42:00,,0809.3,5.00,0.00,26.8,26.0,00.0,35.8,28.6,22.9,0000.0,0004.32,0009.43,0003.15
2022-05-09 10:43:00,,0809.3,5.00,0.00,26.8,26.0,00.0,35.8,28.6,22.9,0000.0,0004.30,0009.34,0003.15
2022-05-09 10:44:00,,0809.3,5.00,0.00,26.8,26.0,00.0,35.8,28.6,22.9,0000.0,0004.31,0009.32,0003.16
2022-05-09 10:45:00,,0809.2,5.00,0.00,26.8,26.0,00.0,35.8,28.6,22.9,0000.0,0004.38,0009.45,0003.19
2022-05-09 10:46:00,,0809.2,4.99,0.00,26.8,26.0,00.0,35.8,28.6,22.9,0000.0,0004.40,0009.47,0003.21
2022-05-09 10:47:00,,0809.2,4.99,0.00,26.7,26.0,00.0,35.8,28.6,22.9,0000.0,0004.44,0009.50,0003.23
2022-05-09 10:48:00,,0809.2,5.01,0.00,26.7,26.0,00.0,35.8,28.5,22.9,0000.0,0004.48,0009.77,0003.25
2022-05-09 10:49:00,,0809.2,5.00,0.00,26.7,25.9,00.0,35.8,28.5,23.0,0000.0,0004.53,0010.00,0003.27
2022-05-09 10:50:00,,0809.2,5.00,0.00,26.7,25.9,00.0,35.8,28.5,23.0,0000.0,0004.53,0009.65,0003.28
2022-05-09 10:51:00,,0809.2,4.99,0.00,26.7,25.9,00.0,35.8,28.5,23.0,0000.0,0004.56,0009.76,0003.30
2022-05-09 10:52:00,,0809.2,5.00,0.00,26.7,25.8,00.0,35.7,28.5,23.0,0000.0,0004.58,0009.56,0003.32
2022-05-09 10:53:00,,0809.2,5.01,0.00,26.7,25.8,00.0,35.7,28.5,23.0,0000.0,0004.57,0009.53,0003.34
2022-05-09 10:54:00,,0809.3,5.00,0.00,26.6,25.8,00.0,35.7,28.4,23.1,0000.0,0004.64,0009.74,0003.39
2022-05-09 10:55:00,,0809.3,5.00,0.00,26.6,25.8,00.0,35.7,28.4,23.1,0000.0,0004.67,0010.32,0003.42
2022-05-09 10:56:00,,0809.3,4.99,0.00,26.6,25.8,00.0,35.7,28.4,23.2,0000.0,0004.66,0010.50,0003.42
2022-05-09 10:57:00,,0809.3,5.00,0.00,26.6,25.7,00.0,35.7,28.4,23.2,0000.0,0004.64,0010.58,0003.44
2022-05-09 10:58:00,,0809.3,5.00,0.00,26.6,25.7,00.0,35.7,28.4,23.3,0000.0,0004.63,0010.63,0003.45
2022-05-09 10:59:00,,0809.3,5.01,0.00,26.6,25.7,00.0,35.7,28.4,23.3,0000.0,0004.60,0010.37,0003.45
